OBJECT BA, 62657

Orbit data source: Space-Track

You're viewing an Uncataloged Satellite

Recently launched and/or uncataloged satellites may have evolving metadata. Metadata may include but not limited to: Owner, Maufacturer, Bus, Motor, and Mission.

OBJECT BA, 62657 is a satellite in SSO that was launched on Tue, 14 Jan 2025 UTC via an FALCON 9 launch vehicle from the Air Force Western Test Range (AFWTR). Unknown objects in Earth's orbit typically refer to objects detected orbiting the Earth but have not yet been identified or cataloged. These objects could be anything from previously untracked satellites, spent rocket stages, debris from satellite collisions, or even natural meteoroids temporarily captured by Earth's gravity.

Loading next visibility...
Identifier
62657, 2025-009BA
Orbit
SSO
Country
Flag of TBDTBD
Related business
None
Manufacturer
Unknown
Mission
Operational Civil Technology
Bus & Motor
Unknown
Mass
Unknown
Launch date (UTC)
2025-01-14 (9 months ago)
Launch vehicle
FALCON 9
Launch site
Air Force Western Test Range (AFWTR)
Object type
Unknown
Shape & HBR
Box, 0.1 m
Radar Cross Section
0.015 m², Small (<0.1 m²)

Expand to show TLE details & history
Last TLE update: 8 hours ago

TLE from 8 hours ago
0 OBJECT BA
1 62657U 25009BA  25298.19125232  .00012540  00000-0  52221-3 0  9990
2 62657  97.4162  16.9102 0002706  58.0942 302.0558 15.23869847 43079
Epoch: 2025-10-25T04:35Z
TLE epoch observation values (Epoch: 2025-10-25T04:35:24.200Z)
Latitude
-0.00004°
Longitude
-85.76597°
Altitude
496.29 km
Speed
7.617 km/s
True Right ascension
01h 07m 38s
True Declination
0° 00' 00"
Sunlit
Object was in full shadow at epoch
Visualization orbit readout
Latitude
Unknown
Longitude
Unknown
Altitude
Unknown
Speed
Unknown
Apparent Right ascension
Unknown
Apparent Declination
Unknown
Sunlit
N/A
Visualization observer readout
Local Sidereal Time
07:34:14
Azimuth
Unknown
Elevation
Unknown
Doppler factor
Unknown
Orbital elements
Apogee altitude
493.001 km
Perigee altitude
489.283 km
Semi-major axis
6,869.279 km
Eccentricity
0.00027
Inclination
97.4162°
RAAN
16.9102°
Arg. of periapsis
58.0942°
True anomaly
302.02951°
Mean anomaly
302.0558°
Eccentric anomaly
302.04266°
Mean motion
3.81221 °/min
Orbital period
94.43 mins
BSTAR
0.00052221
Loading maneuver chart data...
Computing Atmospheric mass density...
Loading historical data...
Loading historical data...
Loading historical data...
Loading historical data...
Loading historical data...
Loading historical data...
Loading historical data...

Documentation

Showing up to 5 results
|